IWG007 LEVX-LEAL

Flight info

Callsign IWG007
Flight time 1h 8m
Altitude 34000
Route BEDAL Z406 ZMR L155 NVS SOSAV L150 ASTRO
Aircraft A20N/M-SDE2E3FGHIJ1RWXY/LB1

Departure

Time 2026-04-15 10:13
Airport Vigo Airport (LEVX)

Arrival

Time 2026-04-15 11:21
Airport Alicante-Elche Miguel Hernández Airport (LEAL)
Time Latitude Longitude Altitude Speed Heading
2026-04-15 10:02 42.22511 -8.63182 842 ft 0 kts 282°
2026-04-15 10:03 42.22509 -8.63169 831 ft 2 kts 274°
2026-04-15 10:03 42.22508 -8.63146 839 ft 2 kts 270°
2026-04-15 10:04 42.22509 -8.63124 831 ft 2 kts 258°
2026-04-15 10:04 42.22514 -8.63103 842 ft 2 kts 239°
2026-04-15 10:04 42.22524 -8.63085 831 ft 2 kts 218°
2026-04-15 10:04 42.22539 -8.63074 836 ft 2 kts 200°
2026-04-15 10:05 42.22551 -8.63068 837 ft 1 kts 192°
2026-04-15 10:05 42.22554 -8.63068 838 ft 0 kts 191°
2026-04-15 10:07 42.22543 -8.63071 837 ft 5 kts 191°
2026-04-15 10:07 42.22490 -8.63085 838 ft 10 kts 191°
2026-04-15 10:07 42.22415 -8.63103 842 ft 11 kts 191°
2026-04-15 10:08 42.22335 -8.63123 842 ft 13 kts 191°
2026-04-15 10:08 42.22246 -8.63151 837 ft 13 kts 192°
2026-04-15 10:08 42.22157 -8.63171 833 ft 14 kts 179°
2026-04-15 10:08 42.22111 -8.63078 839 ft 14 kts 83°
2026-04-15 10:09 42.22161 -8.62960 838 ft 15 kts 32°
2026-04-15 10:09 42.22271 -8.62932 842 ft 17 kts
2026-04-15 10:09 42.22397 -8.62905 833 ft 19 kts 12°
2026-04-15 10:09 42.22539 -8.62865 838 ft 22 kts 12°
2026-04-15 10:10 42.22641 -8.62836 833 ft 23 kts 12°
2026-04-15 10:10 42.22803 -8.62787 834 ft 24 kts 12°
2026-04-15 10:10 42.22971 -8.62740 843 ft 25 kts 10°
2026-04-15 10:10 42.23147 -8.62694 841 ft 26 kts 12°
2026-04-15 10:11 42.23329 -8.62642 835 ft 28 kts 11°
2026-04-15 10:11 42.23522 -8.62589 840 ft 30 kts 12°
2026-04-15 10:11 42.23732 -8.62535 840 ft 31 kts 11°
2026-04-15 10:11 42.23948 -8.62471 838 ft 32 kts 13°
2026-04-15 10:12 42.24148 -8.62434 843 ft 23 kts
2026-04-15 10:12 42.24239 -8.62404 836 ft 10 kts 129°
2026-04-15 10:12 42.24156 -8.62411 843 ft 24 kts 191°
2026-04-15 10:12 42.23729 -8.62527 836 ft 98 kts 191°
2026-04-15 10:13 42.22869 -8.62758 841 ft 152 kts 191°
2026-04-15 10:13 42.21811 -8.63085 1413 ft 158 kts 191°
2026-04-15 10:13 42.20696 -8.63463 2038 ft 173 kts 195°
2026-04-15 10:13 42.19502 -8.63894 2662 ft 182 kts 196°
2026-04-15 10:14 42.18245 -8.64369 3233 ft 197 kts 198°
2026-04-15 10:14 42.16823 -8.64659 3752 ft 219 kts 180°
2026-04-15 10:14 42.15237 -8.64245 4302 ft 244 kts 162°
2026-04-15 10:14 42.13711 -8.63054 4941 ft 265 kts 142°
2026-04-15 10:15 42.12480 -8.61107 5632 ft 280 kts 119°
2026-04-15 10:15 42.11932 -8.58589 6483 ft 288 kts 95°
2026-04-15 10:15 42.11849 -8.55884 7354 ft 293 kts 91°
2026-04-15 10:15 42.11844 -8.53096 8140 ft 300 kts 90°
2026-04-15 10:16 42.11849 -8.50303 8956 ft 305 kts 91°
2026-04-15 10:16 42.11832 -8.47418 9819 ft 310 kts 92°
2026-04-15 10:16 42.11799 -8.44484 10590 ft 318 kts 92°
2026-04-15 10:16 42.11751 -8.41393 10910 ft 343 kts 92°
2026-04-15 10:17 42.11694 -8.38069 11188 ft 364 kts 92°
2026-04-15 10:17 42.11634 -8.34612 11874 ft 371 kts 92°
2026-04-15 10:17 42.11575 -8.31116 12589 ft 377 kts 92°
2026-04-15 10:17 42.11513 -8.27558 13322 ft 383 kts 92°
2026-04-15 10:18 42.11449 -8.23955 14042 ft 389 kts 92°
2026-04-15 10:18 42.11382 -8.20330 14730 ft 393 kts 92°
2026-04-15 10:18 42.11313 -8.16639 15433 ft 396 kts 92°
2026-04-15 10:18 42.11242 -8.12902 16070 ft 401 kts 92°
2026-04-15 10:19 42.11168 -8.09111 16739 ft 406 kts 92°
2026-04-15 10:19 42.11094 -8.05289 17399 ft 410 kts 92°
2026-04-15 10:19 42.11018 -8.01432 18061 ft 414 kts 92°
2026-04-15 10:19 42.10940 -7.97527 18681 ft 418 kts 92°
2026-04-15 10:20 42.10860 -7.93634 19223 ft 422 kts 92°
2026-04-15 10:20 42.10778 -7.89669 19804 ft 425 kts 92°
2026-04-15 10:20 42.10694 -7.85675 20369 ft 428 kts 92°
2026-04-15 10:20 42.10607 -7.81642 20926 ft 432 kts 92°
2026-04-15 10:21 42.10449 -7.77581 21468 ft 435 kts 97°
2026-04-15 10:21 42.09913 -7.73557 22008 ft 438 kts 105°
2026-04-15 10:21 42.08981 -7.69646 22555 ft 440 kts 111°
2026-04-15 10:21 42.07949 -7.65756 23082 ft 444 kts 111°
2026-04-15 10:22 42.06916 -7.61817 23608 ft 447 kts 111°
2026-04-15 10:22 42.05895 -7.57913 24086 ft 450 kts 111°
2026-04-15 10:22 42.04849 -7.53915 24560 ft 453 kts 111°
2026-04-15 10:22 42.03795 -7.49896 24983 ft 456 kts 111°
2026-04-15 10:23 42.02734 -7.45860 25406 ft 459 kts 111°
2026-04-15 10:23 42.01676 -7.41843 25839 ft 461 kts 111°
2026-04-15 10:23 42.00598 -7.37756 26263 ft 464 kts 111°
2026-04-15 10:23 41.99509 -7.33640 26674 ft 467 kts 111°
2026-04-15 10:24 41.98427 -7.29551 27077 ft 469 kts 111°
2026-04-15 10:24 41.97328 -7.25408 27461 ft 472 kts 111°
2026-04-15 10:24 41.96214 -7.21217 27854 ft 474 kts 111°
2026-04-15 10:24 41.95097 -7.17020 28236 ft 477 kts 111°
2026-04-15 10:25 41.93987 -7.12856 28577 ft 480 kts 111°
2026-04-15 10:25 41.92858 -7.08630 28932 ft 482 kts 111°
2026-04-15 10:25 41.91720 -7.04374 29247 ft 485 kts 112°
2026-04-15 10:25 41.90571 -7.00086 29582 ft 487 kts 112°
2026-04-15 10:26 41.89426 -6.95818 29895 ft 489 kts 112°
2026-04-15 10:26 41.88280 -6.91557 30207 ft 492 kts 112°
2026-04-15 10:26 41.87100 -6.87177 30528 ft 493 kts 112°
2026-04-15 10:26 41.85946 -6.82899 30792 ft 496 kts 112°
2026-04-15 10:27 41.84766 -6.78533 31089 ft 498 kts 112°
2026-04-15 10:27 41.83578 -6.74145 31377 ft 499 kts 112°
2026-04-15 10:27 41.82401 -6.69807 31730 ft 499 kts 112°
2026-04-15 10:27 41.81209 -6.65420 32107 ft 498 kts 112°
2026-04-15 10:28 41.80036 -6.61110 32484 ft 497 kts 112°
2026-04-15 10:28 41.78857 -6.56788 32838 ft 497 kts 111°
2026-04-15 10:28 41.77670 -6.52448 33204 ft 496 kts 112°
2026-04-15 10:28 41.76479 -6.48110 33534 ft 495 kts 112°
2026-04-15 10:29 41.75285 -6.43768 33877 ft 495 kts 112°
2026-04-15 10:29 41.74091 -6.39438 34177 ft 494 kts 111°
2026-04-15 10:29 41.72901 -6.35126 34246 ft 493 kts 111°
2026-04-15 10:30 41.70537 -6.26572 34249 ft 492 kts 111°
2026-04-15 10:30 41.68161 -6.17990 34249 ft 491 kts 111°
2026-04-15 10:31 41.65787 -6.09442 34245 ft 491 kts 111°
2026-04-15 10:31 41.63395 -6.00866 34249 ft 491 kts 111°
2026-04-15 10:32 41.61020 -5.92375 34244 ft 490 kts 111°
2026-04-15 10:32 41.58629 -5.83860 34243 ft 489 kts 111°
2026-04-15 10:33 41.56235 -5.75364 34237 ft 488 kts 111°
2026-04-15 10:33 41.53758 -5.66933 34228 ft 487 kts 117°
2026-04-15 10:33 41.51988 -5.63148 34229 ft 485 kts 129°
2026-04-15 10:34 41.49697 -5.59876 34231 ft 482 kts 140°
2026-04-15 10:34 41.44705 -5.53806 34247 ft 487 kts 139°
2026-04-15 10:35 41.39701 -5.47699 34248 ft 486 kts 139°
2026-04-15 10:35 41.34737 -5.41648 34247 ft 487 kts 139°
2026-04-15 10:36 41.29724 -5.35551 34251 ft 488 kts 139°
2026-04-15 10:36 41.24706 -5.29462 34248 ft 488 kts 139°
2026-04-15 10:37 41.19661 -5.23353 34254 ft 489 kts 139°
2026-04-15 10:37 41.14650 -5.17299 34252 ft 490 kts 138°
2026-04-15 10:38 41.09612 -5.11226 34254 ft 491 kts 138°
2026-04-15 10:38 41.04531 -5.05114 34243 ft 491 kts 138°
2026-04-15 10:39 40.99498 -4.99073 34247 ft 492 kts 138°
2026-04-15 10:39 40.94415 -4.92984 34244 ft 493 kts 138°
2026-04-15 10:40 40.89340 -4.86918 34247 ft 494 kts 138°
2026-04-15 10:40 40.84232 -4.80827 34245 ft 494 kts 137°
2026-04-15 10:41 40.79121 -4.74746 34245 ft 495 kts 137°
2026-04-15 10:41 40.73993 -4.68657 34242 ft 496 kts 137°
2026-04-15 10:42 40.68876 -4.62593 34246 ft 497 kts 137°
2026-04-15 10:42 40.63728 -4.56507 34246 ft 498 kts 137°
2026-04-15 10:43 40.58576 -4.50428 34252 ft 498 kts 137°
2026-04-15 10:43 40.53393 -4.44328 34239 ft 498 kts 137°
2026-04-15 10:44 40.48253 -4.38290 34235 ft 496 kts 137°
2026-04-15 10:44 40.43098 -4.32248 34234 ft 497 kts 137°
2026-04-15 10:45 40.38058 -4.26083 34232 ft 494 kts 129°
2026-04-15 10:45 40.35997 -4.22463 34234 ft 491 kts 118°
2026-04-15 10:45 40.34392 -4.18527 34238 ft 488 kts 112°
2026-04-15 10:46 40.31399 -4.10612 34237 ft 488 kts 113°
2026-04-15 10:46 40.28370 -4.02666 34232 ft 487 kts 113°
2026-04-15 10:47 40.25320 -3.94700 34233 ft 486 kts 113°
2026-04-15 10:47 40.22292 -3.86818 34231 ft 486 kts 112°
2026-04-15 10:48 40.19259 -3.78942 34233 ft 485 kts 112°
2026-04-15 10:48 40.16205 -3.71032 34228 ft 485 kts 112°
2026-04-15 10:49 40.13154 -3.63151 34229 ft 485 kts 112°
2026-04-15 10:49 40.10110 -3.55308 34232 ft 486 kts 112°
2026-04-15 10:50 40.07044 -3.47430 34235 ft 486 kts 112°
2026-04-15 10:50 40.03976 -3.39568 34235 ft 486 kts 112°
2026-04-15 10:51 40.00913 -3.31739 34244 ft 487 kts 112°
2026-04-15 10:51 39.97825 -3.23869 34250 ft 488 kts 112°
2026-04-15 10:52 39.94749 -3.16047 34253 ft 488 kts 111°
2026-04-15 10:52 39.91644 -3.08174 34257 ft 488 kts 111°
2026-04-15 10:53 39.88524 -3.00287 34245 ft 488 kts 111°
2026-04-15 10:53 39.85426 -2.92473 34254 ft 488 kts 111°
2026-04-15 10:54 39.82308 -2.84629 34255 ft 488 kts 111°
2026-04-15 10:54 39.79194 -2.76815 34254 ft 488 kts 111°
2026-04-15 10:55 39.76587 -2.70290 34250 ft 488 kts 110°
2026-04-15 10:55 39.73444 -2.62439 34249 ft 488 kts 110°
2026-04-15 10:56 39.70313 -2.54639 34249 ft 488 kts 110°
2026-04-15 10:56 39.67192 -2.46885 34246 ft 488 kts 110°
2026-04-15 10:57 39.64028 -2.39043 34248 ft 488 kts 110°
2026-04-15 10:57 39.59293 -2.27346 34234 ft 489 kts 110°
2026-04-15 10:58 39.56129 -2.19553 34238 ft 489 kts 109°
2026-04-15 10:58 39.52947 -2.11738 34235 ft 490 kts 109°
2026-04-15 10:59 39.49756 -2.03919 34233 ft 491 kts 109°
2026-04-15 10:59 39.46556 -1.96100 34233 ft 491 kts 109°
2026-04-15 11:00 39.43370 -1.88333 34239 ft 492 kts 109°
2026-04-15 11:00 39.40160 -1.80534 33953 ft 490 kts 109°
2026-04-15 11:01 39.38555 -1.76637 33314 ft 490 kts 109°
2026-04-15 11:01 39.36949 -1.72735 32512 ft 493 kts 109°
2026-04-15 11:01 39.35330 -1.68806 31588 ft 497 kts 110°
2026-04-15 11:01 39.33708 -1.64875 30698 ft 500 kts 110°
2026-04-15 11:02 39.32054 -1.60875 29643 ft 504 kts 111°
2026-04-15 11:02 39.30404 -1.56899 28828 ft 502 kts 111°
2026-04-15 11:02 39.28663 -1.52986 28148 ft 502 kts 117°
2026-04-15 11:02 39.26527 -1.49458 27504 ft 505 kts 126°
2026-04-15 11:03 39.23950 -1.46363 26849 ft 509 kts 136°
2026-04-15 11:03 39.21080 -1.43669 26188 ft 507 kts 139°
2026-04-15 11:03 39.18251 -1.41044 25491 ft 504 kts 138°
2026-04-15 11:03 39.15427 -1.38414 24935 ft 498 kts 138°
2026-04-15 11:04 39.12632 -1.35809 24309 ft 494 kts 138°
2026-04-15 11:04 39.09876 -1.33241 23451 ft 489 kts 137°
2026-04-15 11:04 39.07121 -1.30670 23033 ft 486 kts 138°
2026-04-15 11:04 39.04397 -1.28137 22475 ft 479 kts 138°
2026-04-15 11:05 39.01710 -1.25642 21881 ft 473 kts 138°
2026-04-15 11:05 38.99085 -1.23204 21289 ft 468 kts 139°
2026-04-15 11:05 38.96453 -1.20764 20729 ft 462 kts 139°
2026-04-15 11:05 38.93856 -1.18357 20162 ft 457 kts 139°
2026-04-15 11:06 38.91296 -1.15987 19585 ft 452 kts 139°
2026-04-15 11:06 38.88754 -1.13633 19049 ft 447 kts 139°
2026-04-15 11:06 38.86242 -1.11310 18543 ft 441 kts 140°
2026-04-15 11:06 38.83793 -1.09047 17942 ft 436 kts 140°
2026-04-15 11:07 38.81374 -1.06813 17368 ft 431 kts 140°
2026-04-15 11:07 38.78941 -1.04569 16778 ft 426 kts 140°
2026-04-15 11:07 38.76545 -1.02360 16175 ft 422 kts 141°
2026-04-15 11:07 38.74161 -1.00166 15629 ft 418 kts 141°
2026-04-15 11:08 38.71828 -0.98023 15406 ft 404 kts 141°
2026-04-15 11:08 38.69610 -0.95990 15253 ft 390 kts 141°
2026-04-15 11:08 38.67435 -0.93998 15119 ft 376 kts 141°
2026-04-15 11:08 38.65347 -0.92087 14987 ft 363 kts 141°
2026-04-15 11:09 38.63325 -0.90235 14874 ft 351 kts 140°
2026-04-15 11:09 38.61379 -0.88454 14762 ft 339 kts 140°
2026-04-15 11:09 38.59487 -0.86722 14654 ft 327 kts 140°
2026-04-15 11:09 38.57672 -0.85063 14553 ft 315 kts 140°
2026-04-15 11:10 38.55912 -0.83455 14380 ft 306 kts 140°
2026-04-15 11:10 38.54084 -0.82158 14009 ft 308 kts 161°
2026-04-15 11:10 38.52108 -0.81842 13577 ft 307 kts 185°
2026-04-15 11:10 38.50002 -0.82223 13167 ft 304 kts 193°
2026-04-15 11:11 38.47939 -0.82796 12768 ft 301 kts 194°
2026-04-15 11:11 38.45902 -0.83369 12401 ft 297 kts 193°
2026-04-15 11:11 38.43868 -0.83899 11993 ft 296 kts 192°
2026-04-15 11:11 38.41852 -0.84387 11608 ft 294 kts 192°
2026-04-15 11:12 38.39871 -0.84843 11221 ft 291 kts 191°
2026-04-15 11:12 38.37882 -0.85291 10849 ft 289 kts 191°
2026-04-15 11:12 38.35936 -0.85724 10714 ft 277 kts 191°
2026-04-15 11:12 38.34053 -0.85887 10552 ft 267 kts 170°
2026-04-15 11:13 38.32360 -0.85041 10203 ft 261 kts 139°
2026-04-15 11:13 38.31221 -0.83344 9747 ft 253 kts 109°
2026-04-15 11:13 38.30848 -0.81206 9237 ft 247 kts 85°
2026-04-15 11:13 38.30874 -0.79010 8712 ft 249 kts 83°
2026-04-15 11:14 38.30884 -0.76785 8222 ft 254 kts 86°
2026-04-15 11:14 38.30777 -0.74423 6805 ft 288 kts 91°
2026-04-15 11:14 38.30531 -0.71838 5367 ft 299 kts 95°
2026-04-15 11:14 38.30356 -0.69289 4819 ft 273 kts 79°
2026-04-15 11:15 38.30943 -0.67230 4795 ft 227 kts 51°
2026-04-15 11:15 38.32010 -0.65797 3974 ft 224 kts 28°
2026-04-15 11:15 38.33423 -0.65143 3376 ft 217 kts
2026-04-15 11:15 38.34822 -0.65593 2965 ft 204 kts 326°
2026-04-15 11:16 38.35674 -0.66918 2767 ft 188 kts 298°
2026-04-15 11:16 38.36207 -0.68436 2782 ft 192 kts 292°
2026-04-15 11:16 38.36452 -0.70111 2785 ft 190 kts 271°
2026-04-15 11:16 38.36334 -0.71655 2786 ft 162 kts 268°
2026-04-15 11:17 38.36035 -0.72936 2735 ft 151 kts 237°
2026-04-15 11:17 38.35263 -0.73909 2621 ft 165 kts 221°
2026-04-15 11:17 38.34191 -0.74327 2599 ft 161 kts 174°
2026-04-15 11:17 38.33257 -0.73648 2530 ft 159 kts 131°
2026-04-15 11:18 38.32520 -0.72588 2350 ft 156 kts 129°
2026-04-15 11:18 38.31833 -0.71572 2438 ft 150 kts 121°
2026-04-15 11:18 38.31325 -0.70391 2429 ft 154 kts 121°
2026-04-15 11:18 38.30582 -0.69456 2317 ft 151 kts 136°
2026-04-15 11:19 38.29907 -0.68365 2091 ft 168 kts 114°
2026-04-15 11:19 38.29579 -0.66848 1951 ft 190 kts 88°
2026-04-15 11:19 38.29609 -0.65199 1963 ft 172 kts 85°
2026-04-15 11:19 38.29398 -0.63750 1525 ft 165 kts 105°
2026-04-15 11:20 38.29073 -0.62368 1049 ft 158 kts 98°
2026-04-15 11:20 38.28949 -0.61065 781 ft 140 kts 96°
2026-04-15 11:20 38.28793 -0.59887 557 ft 128 kts 99°
2026-04-15 11:20 38.28633 -0.58765 375 ft 131 kts 98°
2026-04-15 11:21 38.28476 -0.57633 206 ft 131 kts 99°
2026-04-15 11:21 38.28321 -0.56552 122 ft 110 kts 100°
2026-04-15 11:21 38.28237 -0.55959 105 ft 32 kts 102°
2026-04-15 11:21 38.28219 -0.55743 98 ft 24 kts 79°
2026-04-15 11:22 38.28248 -0.55526 91 ft 24 kts 73°
2026-04-15 11:22 38.28311 -0.55332 89 ft 22 kts 67°
2026-04-15 11:22 38.28381 -0.55169 88 ft 15 kts 43°
2026-04-15 11:22 38.28461 -0.55185 93 ft 11 kts 354°
2026-04-15 11:23 38.28503 -0.55178 94 ft 3 kts 12°
2026-04-15 11:23 38.28519 -0.55174 94 ft 0 kts